Zurück zum Katalog

DELTA 1 DEB

AktivSSO
NORAD 12172·DEBRIS·🇺🇸 United States

Gestartet Mar 5, 1978 von Vandenberg Space Force Base

Loading…

Nächste Überflüge (nächste 24 Stunden)

TLE

AktuellSource: Space-Track

Epoche: Sep 14, 2026, 08:43 UTC

1 12172U 78026M   26257.36335508  .00000163  00000-0  85899-4 0  9994
2 12172  98.7731 288.6929 0058180 354.4485  18.4725 14.25986972364686

Verfolge DELTA 1 DEB in Echtzeit mit AllMySat

Download on the App Store